Wetterdaten: Donnerstag, 17.03.2016
Datum Zeit Auen-Temp. Temp gefhlt Luftfeuchte Luftdruck Regen Wind Richtung Richtung Sonnenschein Taupunkt Windben
17.03.2016 00:00 -3,7 C -4,0 C 86 % 1021,1 hPa 0,0 mm 0,9 km/h (0 Bft) S-SO 157 0 min -5,7 C 3,9 km/h (1 Bft)
17.03.2016 00:05 -3,2 C -3,5 C 86 % 1021,1 hPa 0,0 mm 0,9 km/h (0 Bft) S-SO 157 0 min -5,2 C 0,0 km/h (0 Bft)
17.03.2016 00:10 -3,8 C -4,0 C 92 % 1021,0 hPa 0,0 mm 1,2 km/h (1 Bft) SW 225 0 min -4,9 C 0,0 km/h (0 Bft)
17.03.2016 00:15 -4,1 C -4,4 C 86 % 1021,0 hPa 0,0 mm 0,3 km/h (0 Bft) SO 135 0 min -6,1 C 0,0 km/h (0 Bft)
17.03.2016 00:20 -3,8 C -4,2 C 86 % 1021,0 hPa 0,0 mm 0,6 km/h (0 Bft) W-SW 247 0 min -5,8 C 3,6 km/h (1 Bft)
17.03.2016 00:25 -4,6 C -4,8 C 92 % 1021,0 hPa 0,0 mm 1,2 km/h (1 Bft) W 270 0 min -5,7 C 0,0 km/h (0 Bft)
17.03.2016 00:30 -4,6 C -4,9 C 92 % 1020,6 hPa 0,0 mm 0,9 km/h (0 Bft) SO 135 0 min -5,7 C 0,0 km/h (0 Bft)
17.03.2016 00:35 -4,5 C -4,7 C 86 % 1020,6 hPa 0,0 mm 1,2 km/h (1 Bft) O-SO 112 0 min -6,5 C 3,0 km/h (1 Bft)
17.03.2016 00:40 -4,2 C -4,5 C 86 % 1020,6 hPa 0,0 mm 1,5 km/h (1 Bft) W-SW 247 0 min -6,2 C 0,0 km/h (0 Bft)
17.03.2016 00:45 -4,4 C -4,7 C 91 % 1020,6 hPa 0,0 mm 1,2 km/h (1 Bft) SO 135 0 min -5,6 C 3,3 km/h (1 Bft)
17.03.2016 00:50 -4,3 C -4,7 C 92 % 1021,0 hPa 0,0 mm 0,6 km/h (0 Bft) SO 135 0 min -5,4 C 0,0 km/h (0 Bft)
17.03.2016 00:55 -4,2 C -4,6 C 91 % 1021,0 hPa 0,0 mm 0,3 km/h (0 Bft) W 270 0 min -5,4 C 6,3 km/h (2 Bft)
17.03.2016 01:00 -4,0 C -4,5 C 92 % 1021,0 hPa 0,0 mm 0,9 km/h (0 Bft) SO 135 0 min -5,1 C 3,0 km/h (1 Bft)
17.03.2016 01:05 -4,7 C -4,9 C 91 % 1021,0 hPa 0,0 mm 1,5 km/h (1 Bft) W-NW 292 0 min -5,9 C 0,0 km/h (0 Bft)
17.03.2016 01:10 -4,9 C -5,2 C 91 % 1020,8 hPa 0,0 mm 1,2 km/h (1 Bft) W-SW 247 0 min -6,1 C 4,2 km/h (1 Bft)
17.03.2016 01:15 -4,0 C -4,4 C 86 % 1020,8 hPa 0,0 mm 2,7 km/h (1 Bft) SW 225 0 min -6,0 C 6,9 km/h (2 Bft)
17.03.2016 01:20 -3,7 C -4,2 C 92 % 1020,8 hPa 0,0 mm 2,7 km/h (1 Bft) W-SW 247 0 min -4,8 C 0,0 km/h (0 Bft)
17.03.2016 01:25 -4,2 C -4,5 C 92 % 1020,8 hPa 0,0 mm 0,9 km/h (0 Bft) W-SW 247 0 min -5,3 C 0,0 km/h (0 Bft)
17.03.2016 01:30 -3,7 C -4,2 C 86 % 1020,7 hPa 0,0 mm 1,2 km/h (1 Bft) SW 225 0 min -5,7 C 7,2 km/h (2 Bft)
17.03.2016 01:35 -4,2 C -4,5 C 92 % 1020,7 hPa 0,0 mm 1,5 km/h (1 Bft) O-SO 112 0 min -5,3 C 0,0 km/h (0 Bft)
17.03.2016 01:40 -4,7 C -4,8 C 91 % 1020,7 hPa 0,0 mm 1,2 km/h (1 Bft) W 270 0 min -5,9 C 0,0 km/h (0 Bft)
17.03.2016 01:45 -5,2 C -5,3 C 91 % 1020,7 hPa 0,0 mm 0,3 km/h (0 Bft) W-NW 292 0 min -6,4 C 0,0 km/h (0 Bft)
17.03.2016 01:50 -5,0 C -5,4 C 91 % 1020,7 hPa 0,0 mm 0,0 km/h (0 Bft) NW 315 0 min -6,2 C 0,0 km/h (0 Bft)
17.03.2016 01:55 -5,1 C -5,5 C 91 % 1020,7 hPa 0,0 mm 0,0 km/h (0 Bft) W-SW 247 0 min -6,3 C 0,0 km/h (0 Bft)
17.03.2016 02:00 -4,2 C -4,8 C 86 % 1020,7 hPa 0,0 mm 0,6 km/h (0 Bft) SO 135 0 min -6,2 C 0,0 km/h (0 Bft)
17.03.2016 02:05 -4,9 C -5,2 C 91 % 1020,7 hPa 0,0 mm 0,9 km/h (0 Bft) W 270 0 min -6,1 C 0,0 km/h (0 Bft)
17.03.2016 02:07 -4,9 C -5,2 C 91 % 1020,7 hPa 0,0 mm 0,9 km/h (0 Bft) W 270 0 min -6,1 C 0,0 km/h (0 Bft)
17.03.2016 02:10 -4,8 C -5,3 C 91 % 1020,5 hPa 0,0 mm 0,6 km/h (0 Bft) S 180 0 min -6,0 C 0,0 km/h (0 Bft)
17.03.2016 02:15 -5,0 C -5,4 C 91 % 1020,5 hPa 0,0 mm 0,3 km/h (0 Bft) W 270 0 min -6,2 C 0,0 km/h (0 Bft)
17.03.2016 02:20 -5,0 C -5,4 C 91 % 1020,5 hPa 0,0 mm 0,3 km/h (0 Bft) W-SW 247 0 min -6,2 C 0,0 km/h (0 Bft)
17.03.2016 02:25 -5,4 C -5,8 C 91 % 1020,5 hPa 0,0 mm 0,0 km/h (0 Bft) SW 225 0 min -6,6 C 0,0 km/h (0 Bft)
17.03.2016 02:30 -4,9 C -5,4 C 91 % 1020,6 hPa 0,0 mm 0,3 km/h (0 Bft) NW 315 0 min -6,1 C 0,0 km/h (0 Bft)
17.03.2016 02:35 -5,8 C -6,1 C 90 % 1020,6 hPa 0,0 mm 0,3 km/h (0 Bft) W-SW 247 0 min -7,2 C 0,0 km/h (0 Bft)
17.03.2016 02:40 -5,3 C -5,8 C 90 % 1020,6 hPa 0,0 mm 0,0 km/h (0 Bft) W 270 0 min -6,7 C 0,0 km/h (0 Bft)
17.03.2016 02:45 -5,4 C -5,9 C 90 % 1020,6 hPa 0,0 mm 0,0 km/h (0 Bft) SW 225 0 min -6,8 C 0,0 km/h (0 Bft)
17.03.2016 02:50 -5,3 C -5,8 C 90 % 1020,4 hPa 0,0 mm 0,0 km/h (0 Bft) W 270 0 min -6,7 C 0,0 km/h (0 Bft)
17.03.2016 02:55 -6,0 C -6,4 C 90 % 1020,4 hPa 0,0 mm 0,0 km/h (0 Bft) O-NO 67 0 min -7,4 C 0,0 km/h (0 Bft)
17.03.2016 03:00 -6,2 C -6,5 C 89 % 1020,4 hPa 0,0 mm 0,0 km/h (0 Bft) NW 315 0 min -7,7 C 0,0 km/h (0 Bft)
17.03.2016 03:05 -6,3 C -6,6 C 89 % 1020,4 hPa 0,0 mm 0,0 km/h (0 Bft) W-SW 247 0 min -7,8 C 0,0 km/h (0 Bft)
17.03.2016 03:10 -6,0 C -6,4 C 89 % 1020,6 hPa 0,0 mm 0,0 km/h (0 Bft) W 270 0 min -7,5 C 0,0 km/h (0 Bft)
17.03.2016 03:15 -6,0 C -6,5 C 89 % 1020,6 hPa 0,0 mm 0,0 km/h (0 Bft) W 270 0 min -7,5 C 0,0 km/h (0 Bft)
17.03.2016 03:20 -5,9 C -6,4 C 89 % 1020,6 hPa 0,0 mm 0,0 km/h (0 Bft) W-SW 247 0 min -7,4 C 4,2 km/h (1 Bft)
17.03.2016 03:25 -5,5 C -6,0 C 90 % 1020,6 hPa 0,0 mm 1,2 km/h (1 Bft) W 270 0 min -6,9 C 0,0 km/h (0 Bft)
17.03.2016 03:30 -5,8 C -6,2 C 89 % 1020,8 hPa 0,0 mm 1,2 km/h (1 Bft) S 180 0 min -7,3 C 0,0 km/h (0 Bft)
17.03.2016 03:35 -6,2 C -6,6 C 89 % 1020,8 hPa 0,0 mm 0,0 km/h (0 Bft) W-SW 247 0 min -7,7 C 0,0 km/h (0 Bft)
17.03.2016 03:40 -6,2 C -6,6 C 89 % 1020,8 hPa 0,0 mm 0,0 km/h (0 Bft) W-SW 247 0 min -7,7 C 0,0 km/h (0 Bft)
17.03.2016 03:45 -6,7 C -7,0 C 89 % 1020,8 hPa 0,0 mm 0,0 km/h (0 Bft) W 270 0 min -8,2 C 0,0 km/h (0 Bft)
17.03.2016 03:50 -6,5 C -6,9 C 89 % 1020,7 hPa 0,0 mm 0,0 km/h (0 Bft) W-SW 247 0 min -8,0 C 0,0 km/h (0 Bft)
17.03.2016 03:55 -6,8 C -7,2 C 89 % 1020,7 hPa 0,0 mm 0,0 km/h (0 Bft) W 270 0 min -8,3 C 0,0 km/h (0 Bft)
17.03.2016 04:00 -6,8 C -7,2 C 89 % 1020,7 hPa 0,0 mm 0,3 km/h (0 Bft) W-SW 247 0 min -8,3 C 0,0 km/h (0 Bft)
17.03.2016 04:05 -6,6 C -7,0 C 89 % 1020,7 hPa 0,0 mm 0,3 km/h (0 Bft) W-NW 292 0 min -8,1 C 0,0 km/h (0 Bft)
17.03.2016 04:10 -6,6 C -6,9 C 89 % 1020,6 hPa 0,0 mm 0,0 km/h (0 Bft) W-SW 247 0 min -8,1 C 0,0 km/h (0 Bft)
17.03.2016 04:15 -6,6 C -6,8 C 89 % 1020,6 hPa 0,0 mm 0,0 km/h (0 Bft) W 270 0 min -8,1 C 0,0 km/h (0 Bft)
17.03.2016 04:20 -6,6 C -6,8 C 85 % 1020,6 hPa 0,0 mm 0,0 km/h (0 Bft) W 270 0 min -8,7 C 0,0 km/h (0 Bft)
17.03.2016 04:25 -6,1 C -6,3 C 85 % 1020,6 hPa 0,0 mm 0,0 km/h (0 Bft) W 270 0 min -8,2 C 0,0 km/h (0 Bft)
17.03.2016 04:30 -6,0 C -6,3 C 89 % 1020,5 hPa 0,0 mm 0,0 km/h (0 Bft) W 270 0 min -7,5 C 0,0 km/h (0 Bft)
17.03.2016 04:35 -6,0 C -6,2 C 85 % 1020,5 hPa 0,0 mm 0,0 km/h (0 Bft) W 270 0 min -8,1 C 0,0 km/h (0 Bft)
17.03.2016 04:40 -6,0 C -6,1 C 85 % 1020,5 hPa 0,0 mm 0,0 km/h (0 Bft) SW 225 0 min -8,1 C 0,0 km/h (0 Bft)
17.03.2016 04:45 -5,7 C -5,9 C 85 % 1020,5 hPa 0,0 mm 0,3 km/h (0 Bft) W-SW 247 0 min -7,8 C 0,0 km/h (0 Bft)
17.03.2016 04:50 -5,6 C -5,8 C 89 % 1020,5 hPa 0,0 mm 0,3 km/h (0 Bft) W 270 0 min -7,1 C 0,0 km/h (0 Bft)
17.03.2016 04:55 -5,6 C -5,7 C 85 % 1020,5 hPa 0,0 mm 0,0 km/h (0 Bft) W-SW 247 0 min -7,7 C 0,0 km/h (0 Bft)
17.03.2016 05:00 -5,6 C -5,8 C 89 % 1020,5 hPa 0,0 mm 0,0 km/h (0 Bft) W-SW 247 0 min -7,1 C 0,0 km/h (0 Bft)
17.03.2016 05:05 -5,8 C -6,1 C 89 % 1020,5 hPa 0,0 mm 0,0 km/h (0 Bft) W-NW 292 0 min -7,3 C 0,0 km/h (0 Bft)
17.03.2016 05:08 -5,8 C -6,1 C 89 % 1020,5 hPa 0,0 mm 0,0 km/h (0 Bft) W-NW 292 0 min -7,3 C 0,0 km/h (0 Bft)
17.03.2016 05:10 -6,0 C -6,3 C 89 % 1020,5 hPa 0,0 mm 0,0 km/h (0 Bft) S 180 0 min -7,5 C 0,0 km/h (0 Bft)
17.03.2016 05:15 -6,0 C -6,4 C 89 % 1020,5 hPa 0,0 mm 0,0 km/h (0 Bft) W-SW 247 0 min -7,5 C 0,0 km/h (0 Bft)
17.03.2016 05:20 -6,0 C -6,4 C 89 % 1020,5 hPa 0,0 mm 0,0 km/h (0 Bft) NW 315 0 min -7,5 C 0,0 km/h (0 Bft)
17.03.2016 05:25 -6,2 C -6,6 C 89 % 1020,5 hPa 0,0 mm 0,0 km/h (0 Bft) W-SW 247 0 min -7,7 C 0,0 km/h (0 Bft)
17.03.2016 05:30 -6,2 C -6,6 C 89 % 1020,4 hPa 0,0 mm 0,0 km/h (0 Bft) W-SW 247 0 min -7,7 C 0,0 km/h (0 Bft)
17.03.2016 05:35 -6,4 C -6,8 C 89 % 1020,4 hPa 0,0 mm 0,0 km/h (0 Bft) W-SW 247 0 min -7,9 C 0,0 km/h (0 Bft)
17.03.2016 05:40 -6,5 C -6,9 C 89 % 1020,4 hPa 0,0 mm 0,0 km/h (0 Bft) W 270 0 min -8,0 C 0,0 km/h (0 Bft)
17.03.2016 05:45 -6,5 C -6,9 C 89 % 1020,4 hPa 0,0 mm 0,0 km/h (0 Bft) W-SW 247 0 min -8,0 C 0,0 km/h (0 Bft)
17.03.2016 05:50 -6,4 C -6,8 C 89 % 1020,4 hPa 0,0 mm 0,0 km/h (0 Bft) W-SW 247 0 min -7,9 C 0,0 km/h (0 Bft)
17.03.2016 05:55 -6,3 C -6,7 C 89 % 1020,4 hPa 0,0 mm 0,0 km/h (0 Bft) W-SW 247 0 min -7,8 C 0,0 km/h (0 Bft)
17.03.2016 06:00 -6,5 C -6,9 C 88 % 1020,4 hPa 0,0 mm 0,0 km/h (0 Bft) W 270 0 min -8,1 C 0,0 km/h (0 Bft)
17.03.2016 06:05 -6,6 C -7,0 C 85 % 1020,4 hPa 0,0 mm 0,3 km/h (0 Bft) W-SW 247 0 min -8,7 C 0,0 km/h (0 Bft)
17.03.2016 06:10 -6,3 C -6,8 C 89 % 1020,2 hPa 0,0 mm 0,3 km/h (0 Bft) W 270 0 min -7,8 C 0,0 km/h (0 Bft)
17.03.2016 06:15 -6,9 C -7,3 C 88 % 1020,2 hPa 0,0 mm 0,3 km/h (0 Bft) W 270 0 min -8,5 C 0,0 km/h (0 Bft)
17.03.2016 06:20 -6,6 C -7,1 C 88 % 1020,2 hPa 0,0 mm 0,0 km/h (0 Bft) SW 225 0 min -8,2 C 0,0 km/h (0 Bft)
17.03.2016 06:25 -6,6 C -7,1 C 88 % 1020,2 hPa 0,0 mm 0,0 km/h (0 Bft) S-SW 202 0 min -8,2 C 0,0 km/h (0 Bft)
17.03.2016 06:30 -6,6 C -6,9 C 85 % 1020,4 hPa 0,0 mm 0,0 km/h (0 Bft) SW 225 0 min -8,7 C 0,0 km/h (0 Bft)
17.03.2016 06:35 -6,4 C -6,7 C 85 % 1020,4 hPa 0,0 mm 0,0 km/h (0 Bft) O-SO 112 0 min -8,5 C 0,0 km/h (0 Bft)
17.03.2016 06:40 -6,6 C -6,9 C 88 % 1020,4 hPa 0,0 mm 0,0 km/h (0 Bft) W 270 0 min -8,2 C 0,0 km/h (0 Bft)
17.03.2016 06:45 -6,7 C -7,0 C 88 % 1020,4 hPa 0,0 mm 0,0 km/h (0 Bft) W-SW 247 0 min -8,3 C 0,0 km/h (0 Bft)
17.03.2016 06:50 -6,3 C -6,5 C 85 % 1020,8 hPa 0,0 mm 0,0 km/h (0 Bft) S 180 0 min -8,4 C 0,0 km/h (0 Bft)
17.03.2016 06:55 -5,7 C -5,9 C 85 % 1020,8 hPa 0,0 mm 0,0 km/h (0 Bft) W 270 0 min -7,8 C 0,0 km/h (0 Bft)
17.03.2016 07:00 -6,0 C -6,2 C 89 % 1020,8 hPa 0,0 mm 0,3 km/h (0 Bft) W 270 0 min -7,5 C 0,0 km/h (0 Bft)
17.03.2016 07:05 -5,6 C -5,7 C 85 % 1020,8 hPa 0,0 mm 0,3 km/h (0 Bft) SW 225 0 min -7,7 C 0,0 km/h (0 Bft)
17.03.2016 07:10 -4,9 C -5,2 C 86 % 1020,9 hPa 0,0 mm 0,0 km/h (0 Bft) NW 315 0 min -6,9 C 0,0 km/h (0 Bft)
17.03.2016 07:15 -5,5 C -5,7 C 89 % 1020,9 hPa 0,0 mm 0,0 km/h (0 Bft) W-SW 247 0 min -7,0 C 0,0 km/h (0 Bft)
17.03.2016 07:20 -5,6 C -5,8 C 85 % 1020,9 hPa 0,0 mm 0,0 km/h (0 Bft) W-SW 247 0 min -7,7 C 0,0 km/h (0 Bft)
17.03.2016 07:25 -5,6 C -5,8 C 89 % 1020,9 hPa 0,0 mm 0,0 km/h (0 Bft) W 270 0 min -7,1 C 0,0 km/h (0 Bft)
17.03.2016 07:30 -5,7 C -5,9 C 89 % 1021,2 hPa 0,0 mm 0,0 km/h (0 Bft) W-SW 247 0 min -7,2 C 0,0 km/h (0 Bft)
17.03.2016 07:35 -5,4 C -5,7 C 89 % 1021,2 hPa 0,0 mm 0,0 km/h (0 Bft) W-SW 247 0 min -6,9 C 0,0 km/h (0 Bft)
17.03.2016 07:40 -5,1 C -5,3 C 86 % 1021,2 hPa 0,0 mm 0,0 km/h (0 Bft) W 270 0 min -7,1 C 0,0 km/h (0 Bft)
17.03.2016 07:45 -4,9 C -4,3 C 86 % 1021,2 hPa 0,0 mm 0,0 km/h (0 Bft) W-SW 247 0 min -6,9 C 0,0 km/h (0 Bft)
17.03.2016 07:50 -4,7 C -4,1 C 86 % 1021,4 hPa 0,0 mm 0,0 km/h (0 Bft) W 270 0 min -6,7 C 0,0 km/h (0 Bft)
17.03.2016 07:55 -4,6 C -2,7 C 86 % 1021,4 hPa 0,0 mm 0,0 km/h (0 Bft) W-SW 247 0 min -6,6 C 0,0 km/h (0 Bft)
17.03.2016 08:00 -4,3 C -0,5 C 86 % 1021,4 hPa 0,0 mm 0,0 km/h (0 Bft) W-SW 247 5 min -6,3 C 0,0 km/h (0 Bft)
17.03.2016 08:05 -4,0 C 1,8 C 86 % 1021,4 hPa 0,0 mm 0,3 km/h (0 Bft) W-SW 247 5 min -6,0 C 0,0 km/h (0 Bft)
17.03.2016 08:09 -4,0 C 3,5 C 86 % 1021,4 hPa 0,0 mm 0,3 km/h (0 Bft) W-SW 247 4 min -6,0 C 0,0 km/h (0 Bft)
17.03.2016 08:10 -4,0 C 3,5 C 86 % 1021,4 hPa 0,0 mm 0,3 km/h (0 Bft) W-SW 247 1 min -6,0 C 0,0 km/h (0 Bft)
17.03.2016 08:15 -3,7 C 5,0 C 86 % 1021,4 hPa 0,0 mm 0,0 km/h (0 Bft) NW 315 5 min -5,7 C 0,0 km/h (0 Bft)
17.03.2016 08:20 -3,6 C 5,4 C 86 % 1021,4 hPa 0,0 mm 0,0 km/h (0 Bft) W-SW 247 5 min -5,6 C 0,0 km/h (0 Bft)
17.03.2016 08:25 -3,5 C 6,5 C 86 % 1021,4 hPa 0,0 mm 0,0 km/h (0 Bft) W-SW 247 5 min -5,5 C 0,0 km/h (0 Bft)
17.03.2016 08:30 -3,4 C 7,5 C 86 % 1021,8 hPa 0,0 mm 0,0 km/h (0 Bft) W-NW 292 5 min -5,4 C 0,0 km/h (0 Bft)
17.03.2016 08:35 -2,8 C 8,2 C 86 % 1021,8 hPa 0,0 mm 0,0 km/h (0 Bft) W-SW 247 5 min -4,8 C 0,0 km/h (0 Bft)
17.03.2016 08:40 -2,8 C 8,9 C 86 % 1021,8 hPa 0,0 mm 0,0 km/h (0 Bft) W 270 5 min -4,8 C 0,0 km/h (0 Bft)
17.03.2016 08:45 -2,4 C 9,6 C 87 % 1021,8 hPa 0,0 mm 0,0 km/h (0 Bft) W 270 5 min -4,3 C 0,0 km/h (0 Bft)
17.03.2016 08:50 -2,4 C 9,9 C 86 % 1022,5 hPa 0,0 mm 0,0 km/h (0 Bft) W 270 5 min -4,4 C 0,0 km/h (0 Bft)
17.03.2016 08:55 -2,0 C 10,4 C 87 % 1022,5 hPa 0,0 mm 0,0 km/h (0 Bft) SO 135 5 min -3,9 C 0,0 km/h (0 Bft)
17.03.2016 09:00 -1,5 C 10,6 C 87 % 1022,5 hPa 0,0 mm 0,0 km/h (0 Bft) NO 45 5 min -3,4 C 0,0 km/h (0 Bft)
17.03.2016 09:05 -1,0 C 11,1 C 87 % 1022,5 hPa 0,0 mm 0,0 km/h (0 Bft) W-SW 247 5 min -2,9 C 0,0 km/h (0 Bft)
17.03.2016 09:10 -0,7 C 11,5 C 87 % 1023,2 hPa 0,0 mm 0,0 km/h (0 Bft) W-SW 247 5 min -2,6 C 0,0 km/h (0 Bft)
17.03.2016 09:15 -0,5 C 12,0 C 87 % 1023,2 hPa 0,0 mm 0,0 km/h (0 Bft) S-SO 157 5 min -2,4 C 0,0 km/h (0 Bft)
17.03.2016 09:20 -0,3 C 12,9 C 87 % 1023,2 hPa 0,0 mm 0,0 km/h (0 Bft) O-SO 112 5 min -2,2 C 0,0 km/h (0 Bft)
17.03.2016 09:25 0,2 C 13,6 C 87 % 1023,2 hPa 0,0 mm 0,0 km/h (0 Bft) O-SO 112 5 min -1,7 C 0,0 km/h (0 Bft)
17.03.2016 09:30 0,7 C 13,8 C 88 % 1023,6 hPa 0,0 mm 0,0 km/h (0 Bft) O 90 5 min -1,1 C 0,0 km/h (0 Bft)
17.03.2016 09:35 1,3 C 13,6 C 87 % 1023,6 hPa 0,0 mm 0,0 km/h (0 Bft) O-SO 112 5 min -0,6 C 0,0 km/h (0 Bft)
17.03.2016 09:40 1,5 C 14,1 C 87 % 1023,6 hPa 0,0 mm 0,0 km/h (0 Bft) O 90 5 min -0,4 C 0,0 km/h (0 Bft)
17.03.2016 09:45 1,9 C 13,6 C 87 % 1023,6 hPa 0,0 mm 0,3 km/h (0 Bft) O-SO 112 5 min -0,0 C 3,0 km/h (1 Bft)
17.03.2016 09:50 2,3 C 13,1 C 87 % 1023,9 hPa 0,0 mm 0,3 km/h (0 Bft) O-SO 112 5 min 0,4 C 0,0 km/h (0 Bft)
17.03.2016 09:55 2,6 C 13,5 C 86 % 1023,9 hPa 0,0 mm 0,3 km/h (0 Bft) O-SO 112 5 min 0,5 C 0,0 km/h (0 Bft)
17.03.2016 10:00 3,2 C 14,3 C 86 % 1023,9 hPa 0,0 mm 0,0 km/h (0 Bft) O-NO 67 5 min 1,1 C 0,0 km/h (0 Bft)
17.03.2016 10:05 4,1 C 14,3 C 85 % 1023,9 hPa 0,0 mm 0,0 km/h (0 Bft) O-NO 67 5 min 1,8 C 0,0 km/h (0 Bft)
17.03.2016 10:10 4,7 C 14,3 C 85 % 1024,1 hPa 0,0 mm 0,3 km/h (0 Bft) SW 225 5 min 2,4 C 0,0 km/h (0 Bft)
17.03.2016 10:15 4,8 C 14,1 C 84 % 1024,1 hPa 0,0 mm 0,9 km/h (0 Bft) O-SO 112 5 min 2,3 C 0,0 km/h (0 Bft)
17.03.2016 10:20 4,9 C 14,6 C 83 % 1024,1 hPa 0,0 mm 0,6 km/h (0 Bft) O-NO 67 5 min 2,3 C 0,0 km/h (0 Bft)
17.03.2016 10:25 5,2 C 14,9 C 82 % 1024,1 hPa 0,0 mm 0,6 km/h (0 Bft) O-NO 67 5 min 2,4 C 0,0 km/h (0 Bft)
17.03.2016 10:30 5,7 C 14,8 C 81 % 1024,3 hPa 0,0 mm 0,9 km/h (0 Bft) O-SO 112 5 min 2,7 C 0,0 km/h (0 Bft)
17.03.2016 10:35 6,8 C 15,7 C 80 % 1024,3 hPa 0,0 mm 0,6 km/h (0 Bft) NO 45 5 min 3,6 C 3,0 km/h (1 Bft)
17.03.2016 10:40 7,0 C 15,9 C 78 % 1024,3 hPa 0,0 mm 0,0 km/h (0 Bft) O 90 5 min 3,4 C 0,0 km/h (0 Bft)
17.03.2016 10:45 7,2 C 16,3 C 76 % 1024,3 hPa 0,0 mm 0,0 km/h (0 Bft) O-SO 112 5 min 3,3 C 0,0 km/h (0 Bft)
17.03.2016 10:50 7,3 C 16,4 C 75 % 1024,2 hPa 0,0 mm 0,3 km/h (0 Bft) O-NO 67 5 min 3,2 C 0,0 km/h (0 Bft)
17.03.2016 10:55 6,9 C 16,6 C 71 % 1024,2 hPa 0,0 mm 0,6 km/h (0 Bft) SO 135 5 min 2,0 C 3,3 km/h (1 Bft)
17.03.2016 11:00 7,2 C 16,6 C 70 % 1024,2 hPa 0,0 mm 0,9 km/h (0 Bft) SO 135 5 min 2,1 C 3,0 km/h (1 Bft)
17.03.2016 11:05 8,0 C 16,6 C 69 % 1024,2 hPa 0,0 mm 1,8 km/h (1 Bft) NO 45 5 min 2,7 C 3,9 km/h (1 Bft)
17.03.2016 11:08 8,3 C 16,5 C 69 % 1024,4 hPa 0,0 mm 1,8 km/h (1 Bft) O-NO 67 3 min 3,0 C 0,0 km/h (0 Bft)
17.03.2016 11:09 8,3 C 16,5 C 69 % 1024,4 hPa 0,0 mm 1,8 km/h (1 Bft) O-NO 67 1 min 3,0 C 0,0 km/h (0 Bft)
17.03.2016 11:15 8,7 C 17,3 C 67 % 1024,4 hPa 0,0 mm 1,8 km/h (1 Bft) O-NO 67 5 min 2,9 C 6,0 km/h (2 Bft)
17.03.2016 11:20 8,7 C 17,1 C 65 % 1024,4 hPa 0,0 mm 2,1 km/h (1 Bft) O-SO 112 5 min 2,5 C 5,4 km/h (1 Bft)
17.03.2016 11:25 8,5 C 17,0 C 64 % 1024,4 hPa 0,0 mm 2,1 km/h (1 Bft) W-SW 247 5 min 2,1 C 8,9 km/h (2 Bft)
17.03.2016 11:30 8,6 C 17,0 C 62 % 1024,5 hPa 0,0 mm 3,0 km/h (1 Bft) N-NO 22 5 min 1,7 C 8,6 km/h (2 Bft)
17.03.2016 11:35 9,0 C 16,4 C 61 % 1024,5 hPa 0,0 mm 5,7 km/h (1 Bft) NW 315 5 min 1,9 C 11,3 km/h (2 Bft)
17.03.2016 11:40 9,0 C 15,6 C 61 % 1024,5 hPa 0,0 mm 7,2 km/h (2 Bft) NW 315 5 min 1,9 C 8,6 km/h (2 Bft)
17.03.2016 11:45 9,4 C 15,6 C 60 % 1024,5 hPa 0,0 mm 6,6 km/h (2 Bft) N-NW 337 0 min 2,0 C 6,3 km/h (2 Bft)
17.03.2016 11:50 9,4 C 15,4 C 59 % 1024,4 hPa 0,0 mm 5,4 km/h (1 Bft) NW 315 0 min 1,8 C 6,9 km/h (2 Bft)
17.03.2016 11:55 9,7 C 14,6 C 59 % 1024,4 hPa 0,0 mm 6,6 km/h (2 Bft) NW 315 0 min 2,1 C 12,2 km/h (2 Bft)
17.03.2016 12:00 9,8 C 14,0 C 59 % 1024,4 hPa 0,0 mm 6,0 km/h (2 Bft) NO 45 0 min 2,2 C 8,9 km/h (2 Bft)
17.03.2016 12:05 9,9 C 13,2 C 58 % 1024,4 hPa 0,0 mm 4,8 km/h (1 Bft) W-NW 292 0 min 2,0 C 6,0 km/h (2 Bft)
17.03.2016 12:11 9,9 C 13,2 C 58 % 1024,2 hPa 0,0 mm 4,8 km/h (1 Bft) N 0 0 min 2,0 C 4,8 km/h (1 Bft)
17.03.2016 12:15 10,1 C 13,7 C 58 % 1024,2 hPa 0,0 mm 4,2 km/h (1 Bft) N 0 0 min 2,2 C 6,9 km/h (2 Bft)
17.03.2016 12:20 10,4 C 14,2 C 57 % 1024,2 hPa 0,0 mm 2,7 km/h (1 Bft) W 270 0 min 2,3 C 0,0 km/h (0 Bft)
17.03.2016 12:25 9,7 C 15,1 C 56 % 1024,2 hPa 0,0 mm 2,1 km/h (1 Bft) O-NO 67 0 min 1,4 C 5,4 km/h (1 Bft)
17.03.2016 12:30 9,7 C 15,6 C 56 % 1024,2 hPa 0,0 mm 3,6 km/h (1 Bft) N-NO 22 5 min 1,4 C 6,0 km/h (2 Bft)
17.03.2016 12:35 9,2 C 15,6 C 58 % 1024,2 hPa 0,0 mm 5,4 km/h (1 Bft) O-NO 67 5 min 1,4 C 5,4 km/h (1 Bft)
17.03.2016 12:40 8,9 C 15,3 C 59 % 1024,2 hPa 0,0 mm 6,0 km/h (2 Bft) O-NO 67 5 min 1,3 C 5,1 km/h (1 Bft)
17.03.2016 12:45 8,9 C 15,3 C 59 % 1024,2 hPa 0,0 mm 6,0 km/h (2 Bft) O-NO 67 5 min 1,3 C 11,6 km/h (2 Bft)
17.03.2016 12:50 8,8 C 15,2 C 59 % 1024,1 hPa 0,0 mm 6,3 km/h (2 Bft) O-SO 112 5 min 1,2 C 6,3 km/h (2 Bft)
17.03.2016 12:55 9,2 C 15,4 C 59 % 1024,1 hPa 0,0 mm 6,0 km/h (2 Bft) O 90 5 min 1,6 C 9,5 km/h (2 Bft)
17.03.2016 13:00 9,3 C 15,5 C 58 % 1024,1 hPa 0,0 mm 6,0 km/h (2 Bft) O-NO 67 5 min 1,5 C 10,4 km/h (2 Bft)
17.03.2016 13:05 9,0 C 14,9 C 57 % 1024,1 hPa 0,0 mm 7,7 km/h (2 Bft) O-NO 67 5 min 0,9 C 17,3 km/h (3 Bft)
17.03.2016 13:12 8,7 C 14,2 C 57 % 1023,9 hPa 0,0 mm 10,1 km/h (2 Bft) N 0 5 min 0,7 C 11,6 km/h (2 Bft)
17.03.2016 13:15 8,8 C 14,4 C 58 % 1023,9 hPa 0,0 mm 8,3 km/h (2 Bft) N 0 0 min 1,0 C 8,3 km/h (2 Bft)
17.03.2016 13:20 8,7 C 14,4 C 58 % 1023,9 hPa 0,0 mm 6,6 km/h (2 Bft) O 90 5 min 0,9 C 6,0 km/h (2 Bft)
17.03.2016 13:25 9,2 C 15,0 C 59 % 1023,9 hPa 0,0 mm 5,7 km/h (1 Bft) O-NO 67 5 min 1,6 C 7,2 km/h (2 Bft)
17.03.2016 13:30 9,0 C 15,2 C 58 % 1023,4 hPa 0,0 mm 5,1 km/h (1 Bft) O-NO 67 5 min 1,2 C 5,1 km/h (1 Bft)
17.03.2016 13:35 9,0 C 15,1 C 58 % 1023,4 hPa 0,0 mm 5,4 km/h (1 Bft) O-NO 67 5 min 1,2 C 5,4 km/h (1 Bft)
17.03.2016 13:40 9,3 C 15,4 C 58 % 1023,4 hPa 0,0 mm 5,1 km/h (1 Bft) NO 45 5 min 1,5 C 3,6 km/h (1 Bft)
17.03.2016 13:45 9,2 C 15,6 C 57 % 1023,4 hPa 0,0 mm 5,1 km/h (1 Bft) O-NO 67 5 min 1,1 C 8,0 km/h (2 Bft)
17.03.2016 13:50 9,0 C 15,6 C 56 % 1023,1 hPa 0,0 mm 4,8 km/h (1 Bft) O-NO 67 5 min 0,7 C 0,0 km/h (0 Bft)
17.03.2016 13:55 9,1 C 15,6 C 55 % 1023,1 hPa 0,0 mm 5,7 km/h (1 Bft) NO 45 5 min 0,5 C 13,4 km/h (3 Bft)
17.03.2016 14:00 9,1 C 15,6 C 55 % 1023,1 hPa 0,0 mm 5,1 km/h (1 Bft) O-NO 67 5 min 0,5 C 4,8 km/h (1 Bft)
17.03.2016 14:05 9,3 C 16,3 C 54 % 1023,1 hPa 0,0 mm 4,5 km/h (1 Bft) O-NO 67 5 min 0,5 C 6,3 km/h (2 Bft)
17.03.2016 14:08 9,4 C 16,3 C 55 % 1022,9 hPa 0,0 mm 3,6 km/h (1 Bft) N-NO 22 3 min 0,8 C 10,1 km/h (2 Bft)
17.03.2016 14:10 9,4 C 16,3 C 55 % 1022,9 hPa 0,0 mm 3,6 km/h (1 Bft) N-NO 22 2 min 0,8 C 10,1 km/h (2 Bft)
17.03.2016 14:15 9,2 C 16,0 C 54 % 1022,9 hPa 0,0 mm 4,8 km/h (1 Bft) O-SO 112 5 min 0,4 C 5,7 km/h (1 Bft)
17.03.2016 14:20 9,5 C 16,2 C 55 % 1022,9 hPa 0,0 mm 4,5 km/h (1 Bft) NO 45 5 min 0,9 C 4,5 km/h (1 Bft)
17.03.2016 14:25 9,7 C 16,5 C 53 % 1022,9 hPa 0,0 mm 4,2 km/h (1 Bft) NO 45 5 min 0,6 C 11,0 km/h (2 Bft)
17.03.2016 14:30 9,4 C 16,0 C 53 % 1022,5 hPa 0,0 mm 6,0 km/h (2 Bft) N-NO 22 5 min 0,3 C 13,4 km/h (3 Bft)
17.03.2016 14:35 10,0 C 15,5 C 53 % 1022,5 hPa 0,0 mm 7,7 km/h (2 Bft) NW 315 5 min 0,9 C 7,5 km/h (2 Bft)
17.03.2016 14:40 10,1 C 15,5 C 53 % 1022,5 hPa 0,0 mm 8,0 km/h (2 Bft) N-NO 22 5 min 1,0 C 11,9 km/h (2 Bft)
17.03.2016 14:45 10,1 C 15,7 C 53 % 1022,5 hPa 0,0 mm 5,4 km/h (1 Bft) O-NO 67 5 min 1,0 C 0,0 km/h (0 Bft)
17.03.2016 14:50 10,1 C 16,2 C 51 % 1022,2 hPa 0,0 mm 4,8 km/h (1 Bft) O-SO 112 5 min 0,4 C 6,0 km/h (2 Bft)
17.03.2016 14:55 9,8 C 15,9 C 51 % 1022,2 hPa 0,0 mm 5,7 km/h (1 Bft) SO 135 5 min 0,2 C 5,4 km/h (1 Bft)
17.03.2016 15:00 9,6 C 15,8 C 50 % 1022,2 hPa 0,0 mm 6,9 km/h (2 Bft) N-NO 22 5 min -0,3 C 8,0 km/h (2 Bft)
17.03.2016 15:05 9,6 C 15,6 C 49 % 1022,2 hPa 0,0 mm 6,9 km/h (2 Bft) N-NO 22 5 min -0,6 C 10,1 km/h (2 Bft)
17.03.2016 15:10 9,5 C 15,2 C 49 % 1021,9 hPa 0,0 mm 6,9 km/h (2 Bft) O-SO 112 5 min -0,7 C 5,1 km/h (1 Bft)
17.03.2016 15:15 9,8 C 15,5 C 49 % 1021,9 hPa 0,0 mm 6,0 km/h (2 Bft) O-NO 67 5 min -0,4 C 5,4 km/h (1 Bft)
17.03.2016 15:20 9,6 C 15,6 C 49 % 1021,9 hPa 0,0 mm 4,2 km/h (1 Bft) O-NO 67 5 min -0,6 C 5,1 km/h (1 Bft)
17.03.2016 15:25 9,4 C 16,1 C 49 % 1021,9 hPa 0,0 mm 3,0 km/h (1 Bft) NO 45 5 min -0,8 C 4,5 km/h (1 Bft)
17.03.2016 15:30 10,0 C 16,3 C 49 % 1021,6 hPa 0,0 mm 2,7 km/h (1 Bft) NO 45 5 min -0,2 C 4,8 km/h (1 Bft)
17.03.2016 15:35 10,3 C 16,2 C 49 % 1021,6 hPa 0,0 mm 4,8 km/h (1 Bft) NO 45 5 min 0,1 C 14,6 km/h (3 Bft)
17.03.2016 15:40 9,7 C 15,4 C 49 % 1021,6 hPa 0,0 mm 6,3 km/h (2 Bft) O-NO 67 5 min -0,5 C 6,3 km/h (2 Bft)
17.03.2016 15:45 9,4 C 15,2 C 50 % 1021,6 hPa 0,0 mm 5,1 km/h (1 Bft) N-NO 22 5 min -0,5 C 0,0 km/h (0 Bft)
17.03.2016 15:50 9,2 C 15,9 C 50 % 1021,1 hPa 0,0 mm 2,4 km/h (1 Bft) O-NO 67 5 min -0,7 C 0,0 km/h (0 Bft)
17.03.2016 15:55 9,0 C 17,0 C 50 % 1021,1 hPa 0,0 mm 1,2 km/h (1 Bft) NO 45 5 min -0,9 C 8,9 km/h (2 Bft)
17.03.2016 16:00 8,9 C 16,4 C 51 % 1021,1 hPa 0,0 mm 2,7 km/h (1 Bft) O-NO 67 5 min -0,7 C 9,5 km/h (2 Bft)
17.03.2016 16:05 9,0 C 15,1 C 51 % 1021,1 hPa 0,0 mm 4,5 km/h (1 Bft) O-SO 112 5 min -0,6 C 19,4 km/h (3 Bft)
17.03.2016 16:10 8,9 C 14,4 C 51 % 1021,0 hPa 0,0 mm 3,9 km/h (1 Bft) O-NO 67 5 min -0,7 C 8,0 km/h (2 Bft)
17.03.2016 16:15 8,8 C 13,2 C 52 % 1021,0 hPa 0,0 mm 3,9 km/h (1 Bft) N-NO 22 5 min -0,5 C 6,9 km/h (2 Bft)
17.03.2016 16:20 8,7 C 12,7 C 52 % 1021,0 hPa 0,0 mm 5,4 km/h (1 Bft) N-NO 22 5 min -0,6 C 8,6 km/h (2 Bft)
17.03.2016 16:25 8,7 C 12,1 C 53 % 1021,0 hPa 0,0 mm 4,8 km/h (1 Bft) S 180 0 min -0,3 C 0,0 km/h (0 Bft)
17.03.2016 16:30 8,8 C 12,4 C 53 % 1020,9 hPa 0,0 mm 3,0 km/h (1 Bft) O-NO 67 5 min -0,2 C 0,0 km/h (0 Bft)
17.03.2016 16:35 8,8 C 12,7 C 54 % 1020,9 hPa 0,0 mm 2,1 km/h (1 Bft) O-NO 67 5 min 0,0 C 8,6 km/h (2 Bft)
17.03.2016 16:40 8,7 C 12,9 C 54 % 1020,9 hPa 0,0 mm 2,7 km/h (1 Bft) O-NO 67 5 min -0,1 C 4,8 km/h (1 Bft)
17.03.2016 16:45 8,4 C 12,0 C 54 % 1020,9 hPa 0,0 mm 4,8 km/h (1 Bft) O-SO 112 5 min -0,4 C 3,9 km/h (1 Bft)
17.03.2016 16:50 8,3 C 11,7 C 55 % 1020,8 hPa 0,0 mm 3,6 km/h (1 Bft) O-SO 112 5 min -0,2 C 0,0 km/h (0 Bft)
17.03.2016 16:55 8,2 C 11,3 C 55 % 1020,8 hPa 0,0 mm 1,5 km/h (1 Bft) S-SO 157 5 min -0,3 C 0,0 km/h (0 Bft)
17.03.2016 17:00 8,0 C 10,6 C 55 % 1020,8 hPa 0,0 mm 0,9 km/h (0 Bft) O 90 0 min -0,5 C 0,0 km/h (0 Bft)
17.03.2016 17:05 7,7 C 9,7 C 56 % 1020,8 hPa 0,0 mm 0,6 km/h (0 Bft) O 90 0 min -0,5 C 3,6 km/h (1 Bft)
17.03.2016 17:08 7,8 C 9,4 C 56 % 1020,6 hPa 0,0 mm 1,5 km/h (1 Bft) N-NO 22 0 min -0,4 C 3,0 km/h (1 Bft)
17.03.2016 17:11 7,8 C 9,4 C 56 % 1020,6 hPa 0,0 mm 1,5 km/h (1 Bft) N-NO 22 0 min -0,4 C 3,0 km/h (1 Bft)
17.03.2016 17:15 7,5 C 9,2 C 56 % 1020,6 hPa 0,0 mm 1,2 km/h (1 Bft) NW 315 0 min -0,7 C 0,0 km/h (0 Bft)
17.03.2016 17:20 7,3 C 9,0 C 57 % 1020,6 hPa 0,0 mm 0,3 km/h (0 Bft) N-NO 22 0 min -0,6 C 0,0 km/h (0 Bft)
17.03.2016 17:25 7,0 C 8,3 C 57 % 1020,6 hPa 0,0 mm 0,0 km/h (0 Bft) N-NO 22 0 min -0,9 C 0,0 km/h (0 Bft)
17.03.2016 17:30 6,9 C 7,8 C 57 % 1020,6 hPa 0,0 mm 0,0 km/h (0 Bft) S-SW 202 0 min -1,0 C 0,0 km/h (0 Bft)
17.03.2016 17:35 6,8 C 7,1 C 58 % 1020,6 hPa 0,0 mm 0,0 km/h (0 Bft) N-NO 22 0 min -0,9 C 0,0 km/h (0 Bft)
17.03.2016 17:40 6,8 C 6,9 C 58 % 1020,6 hPa 0,0 mm 0,0 km/h (0 Bft) S-SO 157 0 min -0,9 C 0,0 km/h (0 Bft)
17.03.2016 17:45 6,6 C 6,6 C 58 % 1020,6 hPa 0,0 mm 0,0 km/h (0 Bft) SO 135 0 min -1,1 C 0,0 km/h (0 Bft)
17.03.2016 17:50 6,6 C 6,5 C 58 % 1020,5 hPa 0,0 mm 0,0 km/h (0 Bft) S-SO 157 0 min -1,1 C 0,0 km/h (0 Bft)
17.03.2016 17:55 6,5 C 6,3 C 58 % 1020,5 hPa 0,0 mm 0,0 km/h (0 Bft) O-SO 112 0 min -1,2 C 0,0 km/h (0 Bft)
17.03.2016 18:00 6,4 C 6,2 C 58 % 1020,5 hPa 0,0 mm 0,0 km/h (0 Bft) O-SO 112 0 min -1,2 C 0,0 km/h (0 Bft)
17.03.2016 18:05 6,3 C 6,0 C 59 % 1020,5 hPa 0,0 mm 0,0 km/h (0 Bft) O-SO 112 0 min -1,1 C 0,0 km/h (0 Bft)
17.03.2016 18:10 6,1 C 5,8 C 59 % 1020,6 hPa 0,0 mm 0,0 km/h (0 Bft) O 90 0 min -1,3 C 0,0 km/h (0 Bft)
17.03.2016 18:15 6,1 C 5,8 C 59 % 1020,6 hPa 0,0 mm 0,0 km/h (0 Bft) SO 135 0 min -1,3 C 0,0 km/h (0 Bft)
17.03.2016 18:20 6,0 C 5,7 C 59 % 1020,6 hPa 0,0 mm 0,0 km/h (0 Bft) O-SO 112 0 min -1,4 C 0,0 km/h (0 Bft)
17.03.2016 18:25 5,8 C 5,5 C 59 % 1020,6 hPa 0,0 mm 0,0 km/h (0 Bft) O-SO 112 0 min -1,6 C 0,0 km/h (0 Bft)
17.03.2016 18:30 5,1 C 4,8 C 59 % 1020,6 hPa 0,0 mm 0,0 km/h (0 Bft) SO 135 0 min -2,2 C 0,0 km/h (0 Bft)
17.03.2016 18:35 5,1 C 4,7 C 60 % 1020,6 hPa 0,0 mm 1,5 km/h (1 Bft) S 180 0 min -2,0 C 6,0 km/h (2 Bft)
17.03.2016 18:40 5,0 C 4,7 C 60 % 1020,6 hPa 0,0 mm 2,7 km/h (1 Bft) S-SO 157 0 min -2,1 C 3,0 km/h (1 Bft)
17.03.2016 18:45 4,3 C 4,1 C 62 % 1020,6 hPa 0,0 mm 2,4 km/h (1 Bft) O-SO 112 0 min -2,3 C 0,0 km/h (0 Bft)
17.03.2016 18:50 3,8 C 3,5 C 64 % 1020,6 hPa 0,0 mm 0,9 km/h (0 Bft) O-SO 112 0 min -2,4 C 0,0 km/h (0 Bft)
17.03.2016 18:55 3,5 C 3,3 C 64 % 1020,6 hPa 0,0 mm 1,8 km/h (1 Bft) S 180 0 min -2,7 C 4,5 km/h (1 Bft)
17.03.2016 19:00 3,5 C 3,4 C 65 % 1020,6 hPa 0,0 mm 3,0 km/h (1 Bft) SO 135 0 min -2,4 C 4,2 km/h (1 Bft)
17.03.2016 19:05 2,9 C 3,1 C 66 % 1020,6 hPa 0,0 mm 2,7 km/h (1 Bft) SO 135 0 min -2,8 C 3,9 km/h (1 Bft)
17.03.2016 19:10 2,8 C 2,8 C 67 % 1020,6 hPa 0,0 mm 1,8 km/h (1 Bft) S 180 0 min -2,7 C 5,1 km/h (1 Bft)
17.03.2016 19:15 2,8 C 2,6 C 68 % 1020,6 hPa 0,0 mm 3,3 km/h (1 Bft) S 180 0 min -2,5 C 5,1 km/h (1 Bft)
17.03.2016 19:20 2,7 C 2,4 C 70 % 1020,6 hPa 0,0 mm 4,5 km/h (1 Bft) S-SO 157 0 min -2,2 C 5,4 km/h (1 Bft)
17.03.2016 19:25 2,3 C 2,1 C 72 % 1020,6 hPa 0,0 mm 4,5 km/h (1 Bft) S-SO 157 0 min -2,2 C 3,9 km/h (1 Bft)
17.03.2016 19:30 2,2 C 2,1 C 69 % 1020,7 hPa 0,0 mm 4,2 km/h (1 Bft) S-SO 157 0 min -2,9 C 4,5 km/h (1 Bft)
17.03.2016 19:35 2,1 C 1,8 C 74 % 1020,7 hPa 0,0 mm 2,4 km/h (1 Bft) S-SO 157 0 min -2,0 C 3,9 km/h (1 Bft)
17.03.2016 19:40 1,9 C 1,6 C 74 % 1020,7 hPa 0,0 mm 2,7 km/h (1 Bft) SO 135 0 min -2,2 C 3,6 km/h (1 Bft)
17.03.2016 19:45 1,5 C 1,2 C 76 % 1020,7 hPa 0,0 mm 4,8 km/h (1 Bft) S 180 0 min -2,3 C 6,0 km/h (2 Bft)
17.03.2016 19:50 1,6 C 1,2 C 76 % 1020,7 hPa 0,0 mm 4,8 km/h (1 Bft) S 180 0 min -2,2 C 4,8 km/h (1 Bft)
17.03.2016 19:55 1,4 C 1,1 C 76 % 1020,7 hPa 0,0 mm 3,0 km/h (1 Bft) S-SO 157 0 min -2,4 C 0,0 km/h (0 Bft)
17.03.2016 20:00 1,6 C 1,2 C 77 % 1020,7 hPa 0,0 mm 2,4 km/h (1 Bft) SO 135 0 min -2,0 C 0,0 km/h (0 Bft)
17.03.2016 20:05 1,8 C 1,3 C 77 % 1020,7 hPa 0,0 mm 1,5 km/h (1 Bft) O-SO 112 0 min -1,8 C 0,0 km/h (0 Bft)
17.03.2016 20:10 1,8 C 1,3 C 77 % 1020,6 hPa 0,0 mm 0,6 km/h (0 Bft) O-SO 112 0 min -1,8 C 0,0 km/h (0 Bft)
17.03.2016 20:12 1,8 C 1,3 C 77 % 1020,6 hPa 0,0 mm 0,6 km/h (0 Bft) O-SO 112 0 min -1,8 C 0,0 km/h (0 Bft)
17.03.2016 20:15 1,8 C 1,2 C 77 % 1020,6 hPa 0,0 mm 0,0 km/h (0 Bft) SO 135 0 min -1,8 C 0,0 km/h (0 Bft)
17.03.2016 20:20 1,7 C 1,1 C 77 % 1020,6 hPa 0,0 mm 0,0 km/h (0 Bft) NO 45 0 min -1,9 C 0,0 km/h (0 Bft)
17.03.2016 20:25 0,8 C 0,3 C 76 % 1020,6 hPa 0,0 mm 0,0 km/h (0 Bft) O 90 0 min -2,9 C 0,0 km/h (0 Bft)
17.03.2016 20:30 0,4 C -0,1 C 75 % 1020,6 hPa 0,0 mm 0,0 km/h (0 Bft) O-NO 67 0 min -3,5 C 0,0 km/h (0 Bft)
17.03.2016 20:35 0,2 C -0,4 C 75 % 1020,6 hPa 0,0 mm 0,0 km/h (0 Bft) O-NO 67 0 min -3,7 C 0,0 km/h (0 Bft)
17.03.2016 20:40 0,2 C -0,5 C 76 % 1020,6 hPa 0,0 mm 0,0 km/h (0 Bft) O-NO 67 0 min -3,5 C 0,0 km/h (0 Bft)
17.03.2016 20:45 -0,1 C -0,7 C 76 % 1020,6 hPa 0,0 mm 0,0 km/h (0 Bft) O 90 0 min -3,8 C 0,0 km/h (0 Bft)
17.03.2016 20:50 -0,4 C -1,0 C 76 % 1020,6 hPa 0,0 mm 0,0 km/h (0 Bft) O-NO 67 0 min -4,1 C 0,0 km/h (0 Bft)
17.03.2016 20:55 -0,5 C -1,1 C 76 % 1020,6 hPa 0,0 mm 0,0 km/h (0 Bft) O-NO 67 0 min -4,2 C 0,0 km/h (0 Bft)
17.03.2016 21:00 -0,8 C -1,4 C 76 % 1020,6 hPa 0,0 mm 0,0 km/h (0 Bft) O-NO 67 0 min -4,5 C 0,0 km/h (0 Bft)
17.03.2016 21:05 -0,8 C -1,4 C 76 % 1020,6 hPa 0,0 mm 0,0 km/h (0 Bft) O 90 0 min -4,5 C 0,0 km/h (0 Bft)
17.03.2016 21:10 -0,5 C -1,3 C 77 % 1020,5 hPa 0,0 mm 0,0 km/h (0 Bft) O-NO 67 0 min -4,0 C 0,0 km/h (0 Bft)
17.03.2016 21:15 -0,7 C -1,3 C 77 % 1020,5 hPa 0,0 mm 0,0 km/h (0 Bft) O-SO 112 0 min -4,2 C 0,0 km/h (0 Bft)
17.03.2016 21:20 -0,9 C -1,5 C 77 % 1020,5 hPa 0,0 mm 0,0 km/h (0 Bft) O-NO 67 0 min -4,4 C 0,0 km/h (0 Bft)
17.03.2016 21:25 -0,5 C -1,3 C 78 % 1020,5 hPa 0,0 mm 0,0 km/h (0 Bft) N-NO 22 0 min -3,9 C 0,0 km/h (0 Bft)
17.03.2016 21:30 -0,9 C -1,5 C 78 % 1020,8 hPa 0,0 mm 0,0 km/h (0 Bft) NO 45 0 min -4,2 C 0,0 km/h (0 Bft)
17.03.2016 21:35 -0,9 C -1,6 C 78 % 1020,8 hPa 0,0 mm 0,0 km/h (0 Bft) SO 135 0 min -4,2 C 0,0 km/h (0 Bft)
17.03.2016 21:40 -0,9 C -1,6 C 79 % 1020,8 hPa 0,0 mm 0,0 km/h (0 Bft) N-NO 22 0 min -4,1 C 0,0 km/h (0 Bft)
17.03.2016 21:45 -1,3 C -1,8 C 78 % 1020,8 hPa 0,0 mm 0,0 km/h (0 Bft) O-NO 67 0 min -4,6 C 0,0 km/h (0 Bft)
17.03.2016 21:50 -1,1 C -1,7 C 79 % 1020,5 hPa 0,0 mm 0,0 km/h (0 Bft) O 90 0 min -4,3 C 0,0 km/h (0 Bft)
17.03.2016 21:55 -1,5 C -2,0 C 79 % 1020,5 hPa 0,0 mm 0,0 km/h (0 Bft) NO 45 0 min -4,7 C 0,0 km/h (0 Bft)
17.03.2016 22:00 -1,2 C -1,8 C 79 % 1020,5 hPa 0,0 mm 0,0 km/h (0 Bft) N-NO 22 0 min -4,4 C 0,0 km/h (0 Bft)
17.03.2016 22:05 -1,5 C -2,0 C 79 % 1020,5 hPa 0,0 mm 0,0 km/h (0 Bft) NO 45 0 min -4,7 C 0,0 km/h (0 Bft)
17.03.2016 22:10 -1,9 C -2,3 C 79 % 1020,5 hPa 0,0 mm 0,0 km/h (0 Bft) N-NO 22 0 min -5,0 C 0,0 km/h (0 Bft)
17.03.2016 22:15 -1,8 C -2,3 C 79 % 1020,5 hPa 0,0 mm 0,0 km/h (0 Bft) O-NO 67 0 min -4,9 C 0,0 km/h (0 Bft)
17.03.2016 22:20 -1,5 C -2,1 C 80 % 1020,5 hPa 0,0 mm 0,0 km/h (0 Bft) O-NO 67 0 min -4,5 C 0,0 km/h (0 Bft)
17.03.2016 22:25 -1,4 C -2,0 C 81 % 1020,5 hPa 0,0 mm 0,0 km/h (0 Bft) O 90 0 min -4,2 C 0,0 km/h (0 Bft)
17.03.2016 22:30 -1,5 C -2,1 C 81 % 1020,4 hPa 0,0 mm 0,0 km/h (0 Bft) NO 45 0 min -4,3 C 0,0 km/h (0 Bft)
17.03.2016 22:35 -1,4 C -2,1 C 82 % 1020,4 hPa 0,0 mm 0,0 km/h (0 Bft) O-SO 112 0 min -4,1 C 0,0 km/h (0 Bft)
17.03.2016 22:40 -1,4 C -2,1 C 82 % 1020,4 hPa 0,0 mm 0,0 km/h (0 Bft) O-SO 112 0 min -4,1 C 0,0 km/h (0 Bft)
17.03.2016 22:45 -1,9 C -2,4 C 82 % 1020,4 hPa 0,0 mm 0,0 km/h (0 Bft) NW 315 0 min -4,6 C 0,0 km/h (0 Bft)
17.03.2016 22:50 -2,1 C -2,6 C 81 % 1020,1 hPa 0,0 mm 0,0 km/h (0 Bft) N-NW 337 0 min -4,9 C 0,0 km/h (0 Bft)
17.03.2016 22:55 -2,0 C -2,5 C 82 % 1020,1 hPa 0,0 mm 0,0 km/h (0 Bft) N-NO 22 0 min -4,7 C 0,0 km/h (0 Bft)
17.03.2016 23:00 -2,3 C -2,7 C 82 % 1020,1 hPa 0,0 mm 0,0 km/h (0 Bft) O-NO 67 0 min -4,9 C 0,0 km/h (0 Bft)
17.03.2016 23:05 -1,8 C -2,4 C 83 % 1020,1 hPa 0,0 mm 0,0 km/h (0 Bft) SO 135 0 min -4,3 C 0,0 km/h (0 Bft)
17.03.2016 23:10 -1,6 C -2,3 C 84 % 1020,1 hPa 0,0 mm 0,0 km/h (0 Bft) O-NO 67 0 min -3,9 C 0,0 km/h (0 Bft)
17.03.2016 23:13 -1,6 C -2,3 C 84 % 1020,1 hPa 0,0 mm 0,0 km/h (0 Bft) O-NO 67 0 min -3,9 C 0,0 km/h (0 Bft)
17.03.2016 23:15 -2,1 C -2,6 C 84 % 1020,1 hPa 0,0 mm 0,0 km/h (0 Bft) NO 45 0 min -4,4 C 0,0 km/h (0 Bft)
17.03.2016 23:20 -2,1 C -2,6 C 83 % 1020,1 hPa 0,0 mm 0,0 km/h (0 Bft) NO 45 0 min -4,6 C 0,0 km/h (0 Bft)
17.03.2016 23:25 -2,4 C -2,8 C 83 % 1020,1 hPa 0,0 mm 0,0 km/h (0 Bft) N-NO 22 0 min -4,9 C 0,0 km/h (0 Bft)
17.03.2016 23:30 -2,7 C -3,1 C 83 % 1020,0 hPa 0,0 mm 0,0 km/h (0 Bft) N-NW 337 0 min -5,2 C 0,0 km/h (0 Bft)
17.03.2016 23:35 -2,2 C -2,8 C 84 % 1020,0 hPa 0,0 mm 0,0 km/h (0 Bft) O-NO 67 0 min -4,5 C 0,0 km/h (0 Bft)
17.03.2016 23:40 -2,0 C -2,6 C 84 % 1020,0 hPa 0,0 mm 0,0 km/h (0 Bft) NO 45 0 min -4,3 C 0,0 km/h (0 Bft)
17.03.2016 23:45 -2,0 C -2,6 C 84 % 1020,0 hPa 0,0 mm 0,0 km/h (0 Bft) SO 135 0 min -4,3 C 0,0 km/h (0 Bft)
17.03.2016 23:50 -2,0 C -2,6 C 84 % 1019,8 hPa 0,0 mm 0,0 km/h (0 Bft) NW 315 0 min -4,3 C 0,0 km/h (0 Bft)
17.03.2016 23:55 -2,4 C -2,9 C 84 % 1019,8 hPa 0,0 mm 0,0 km/h (0 Bft) N-NO 22 0 min -4,7 C 0,0 km/h (0 Bft)
_ Min-Zeit 06:15 06:15 15:40 23:55 - 23:55 - - - 06:30 23:55
Minimum _ -6,9 C -7,3 C 49 % 1019,8 hPa - 0,0 km/h (0 Bft) - - - -8,7 C 0,0 km/h (0 Bft)
_ Max-Zeit 12:20 11:15 01:35 11:45 23:55 13:12 - - 16:55 10:35 16:05
Maximum _ 10,4 C 17,3 C 92 % 1024,5 hPa 0,0 mm 10,1 km/h
N (2 Bft)
- - 5 min 3,6 C 19,4 km/h
O-SO (3 Bft)
Durchschnitt _ 1,0 C 3,7 C 75 % 1021,5 hPa #0,0 mm 1,5 km/h (1 Bft) O-NO - #8:04 h -3,2 C 2,1 km/h (1 Bft)